Time,TemperatureF,DewpointF,PressureIn,WindDirection,WindDirectionDegrees,WindSpeedMPH,WindSpeedGustMPH,Humidity,HourlyPrecipIn,Conditions,Clouds,dailyrainin,SolarRadiationWatts/m^2,SoftwareType,DateUTC
2014-09-21 00:01:00,47.0,39.2,30.20,North,0,0.0,0.0,74,0.00,,,0.00,0,WeatherCatV1.24B11,2014-09-21 06:01:00,
2014-09-21 00:10:00,47.1,39.6,30.20,North,0,0.0,0.0,75,0.00,,,0.00,0,WeatherCatV1.24B11,2014-09-21 06:10:00,
2014-09-21 00:20:00,46.7,40.2,30.20,North,0,2.0,3.0,78,0.00,,,0.00,0,WeatherCatV1.24B11,2014-09-21 06:20:00,
2014-09-21 00:30:00,47.8,39.9,30.20,North,0,2.0,3.0,74,0.00,,,0.00,0,WeatherCatV1.24B11,2014-09-21 06:30:00,
2014-09-21 00:41:00,50.3,39.8,30.20,North,0,3.0,3.0,67,0.00,,,0.00,0,WeatherCatV1.24B11,2014-09-21 06:41:00,
2014-09-21 00:50:00,50.6,39.7,30.20,North,0,2.0,3.0,66,0.00,,,0.00,0,WeatherCatV1.24B11,2014-09-21 06:50:00,
2014-09-21 01:01:00,50.6,39.3,30.20,North,0,3.0,3.0,65,0.00,,,0.00,0,WeatherCatV1.24B11,2014-09-21 07:01:00,
2014-09-21 01:11:00,51.1,39.3,30.20,North,0,4.0,7.0,64,0.00,,,0.00,0,WeatherCatV1.24B11,2014-09-21 07:11:00,
2014-09-21 01:21:00,51.2,39.0,30.19,North,0,2.0,5.0,63,0.00,,,0.00,0,WeatherCatV1.24B11,2014-09-21 07:21:00,
2014-09-21 01:31:00,51.0,39.3,30.19,North,0,2.0,3.0,64,0.00,,,0.00,0,WeatherCatV1.24B11,2014-09-21 07:31:00,
2014-09-21 01:41:00,51.1,39.8,30.19,NNE,15,2.0,3.0,65,0.00,,,0.00,0,WeatherCatV1.24B11,2014-09-21 07:41:00,
2014-09-21 01:51:00,50.5,38.8,30.19,North,0,1.0,2.0,64,0.00,,,0.00,0,WeatherCatV1.24B11,2014-09-21 07:51:00,
2014-09-21 02:01:00,49.7,38.8,30.18,North,0,1.0,1.0,66,0.00,,,0.00,0,WeatherCatV1.24B11,2014-09-21 08:01:00,
2014-09-21 02:11:00,48.9,38.4,30.18,North,0,0.0,1.0,67,0.00,,,0.00,0,WeatherCatV1.24B11,2014-09-21 08:11:00,
2014-09-21 02:21:00,48.4,38.3,30.18,North,0,1.0,2.0,68,0.00,,,0.00,0,WeatherCatV1.24B11,2014-09-21 08:21:00,
2014-09-21 02:31:00,47.9,38.2,30.18,North,0,0.0,0.0,69,0.00,,,0.00,0,WeatherCatV1.24B11,2014-09-21 08:31:00,
2014-09-21 02:41:00,47.0,38.5,30.17,North,0,1.0,2.0,72,0.00,,,0.00,0,WeatherCatV1.24B11,2014-09-21 08:41:00,
2014-09-21 02:51:00,46.4,38.2,30.17,North,0,1.0,1.0,73,0.00,,,0.00,0,WeatherCatV1.24B11,2014-09-21 08:51:00,
2014-09-21 03:01:00,45.9,38.1,30.17,North,0,0.0,0.0,74,0.00,,,0.00,0,WeatherCatV1.24B11,2014-09-21 09:01:00,
2014-09-21 03:11:00,45.8,38.3,30.17,North,0,1.0,3.0,75,0.00,,,0.00,0,WeatherCatV1.24B11,2014-09-21 09:11:00,
2014-09-21 03:21:00,45.6,38.5,30.18,North,0,2.0,3.0,76,0.00,,,0.00,0,WeatherCatV1.24B11,2014-09-21 09:21:00,
2014-09-21 03:31:00,46.5,38.0,30.18,North,0,0.0,2.0,72,0.00,,,0.00,0,WeatherCatV1.24B11,2014-09-21 09:31:00,
2014-09-21 03:41:00,47.6,37.6,30.18,North,0,0.0,2.0,68,0.00,,,0.00,0,WeatherCatV1.24B11,2014-09-21 09:41:00,
2014-09-21 03:51:00,49.2,37.5,30.18,North,0,2.0,5.0,64,0.00,,,0.00,0,WeatherCatV1.24B11,2014-09-21 09:51:00,
2014-09-21 04:01:00,48.8,36.4,30.18,North,0,3.0,5.0,62,0.00,,,0.00,0,WeatherCatV1.24B11,2014-09-21 10:01:00,
2014-09-21 04:11:00,47.6,36.8,30.17,North,0,1.0,3.0,66,0.00,,,0.00,0,WeatherCatV1.24B11,2014-09-21 10:11:00,
2014-09-21 04:21:00,46.7,36.0,30.17,North,0,1.0,1.0,66,0.00,,,0.00,0,WeatherCatV1.24B11,2014-09-21 10:21:00,
2014-09-21 04:31:00,46.1,36.1,30.17,North,0,0.0,3.0,68,0.00,,,0.00,0,WeatherCatV1.24B11,2014-09-21 10:31:00,
2014-09-21 04:41:00,46.7,36.7,30.17,North,0,2.0,3.0,68,0.00,,,0.00,0,WeatherCatV1.24B11,2014-09-21 10:41:00,
2014-09-21 04:51:00,46.0,36.0,30.17,North,0,0.0,2.0,68,0.00,,,0.00,0,WeatherCatV1.24B11,2014-09-21 10:51:00,
2014-09-21 05:01:00,45.9,35.9,30.17,North,0,0.0,3.0,68,0.00,,,0.00,0,WeatherCatV1.24B11,2014-09-21 11:01:00,
2014-09-21 05:11:00,45.7,35.0,30.17,North,0,1.0,2.0,66,0.00,,,0.00,0,WeatherCatV1.24B11,2014-09-21 11:11:00,
2014-09-21 05:21:00,46.6,34.3,30.17,North,0,1.0,3.0,62,0.00,,,0.00,0,WeatherCatV1.24B11,2014-09-21 11:21:00,
2014-09-21 05:31:00,46.7,34.8,30.17,North,0,1.0,2.0,63,0.00,,,0.00,0,WeatherCatV1.24B11,2014-09-21 11:31:00,
2014-09-21 05:41:00,45.9,35.6,30.17,North,0,0.0,2.0,67,0.00,,,0.00,0,WeatherCatV1.24B11,2014-09-21 11:41:00,
2014-09-21 05:51:00,45.4,34.7,30.17,North,0,2.0,4.0,66,0.00,,,0.00,0,WeatherCatV1.24B11,2014-09-21 11:51:00,
2014-09-21 06:01:00,44.9,33.9,30.17,North,0,2.0,3.0,65,0.00,,,0.00,0,WeatherCatV1.24B11,2014-09-21 12:01:00,
2014-09-21 06:11:00,45.8,35.5,30.17,North,0,1.0,3.0,67,0.00,,,0.00,0,WeatherCatV1.24B11,2014-09-21 12:11:00,
2014-09-21 06:21:00,45.3,34.2,30.17,North,0,2.0,4.0,65,0.00,,,0.00,0,WeatherCatV1.24B11,2014-09-21 12:21:00,
2014-09-21 06:31:00,45.5,34.0,30.17,North,0,1.0,3.0,64,0.00,,,0.00,0,WeatherCatV1.24B11,2014-09-21 12:31:00,
2014-09-21 06:41:00,46.6,35.1,30.17,North,0,2.0,4.0,64,0.00,,,0.00,0,WeatherCatV1.24B11,2014-09-21 12:41:00,
2014-09-21 06:51:00,46.1,33.4,30.17,North,0,1.0,1.0,61,0.00,,,0.00,0,WeatherCatV1.24B11,2014-09-21 12:51:00,
2014-09-21 07:01:00,46.0,34.1,30.18,North,0,1.0,3.0,63,0.00,,,0.00,7,WeatherCatV1.24B11,2014-09-21 13:01:00,
2014-09-21 07:11:00,46.0,33.7,30.17,North,0,0.0,2.0,62,0.00,,,0.00,14,WeatherCatV1.24B11,2014-09-21 13:11:00,
2014-09-21 07:21:00,45.9,34.8,30.17,North,0,1.0,3.0,65,0.00,,,0.00,26,WeatherCatV1.24B11,2014-09-21 13:21:00,
2014-09-21 07:31:00,46.9,34.2,30.17,North,0,0.0,3.0,61,0.00,,,0.00,58,WeatherCatV1.24B11,2014-09-21 13:31:00,
2014-09-21 07:41:00,48.1,35.7,30.18,North,0,0.0,1.0,62,0.00,,,0.00,105,WeatherCatV1.24B11,2014-09-21 13:41:00,
2014-09-21 07:51:00,49.3,37.2,30.18,North,0,0.0,1.0,63,0.00,,,0.00,158,WeatherCatV1.24B11,2014-09-21 13:51:00,
2014-09-21 08:01:00,50.6,37.2,30.18,North,0,0.0,2.0,60,0.00,,,0.00,202,WeatherCatV1.24B11,2014-09-21 14:01:00,
2014-09-21 08:11:00,52.9,38.1,30.18,North,0,0.0,0.0,57,0.00,,,0.00,241,WeatherCatV1.24B11,2014-09-21 14:11:00,
2014-09-21 08:21:00,55.6,38.7,30.18,North,0,0.0,0.0,53,0.00,,,0.00,281,WeatherCatV1.24B11,2014-09-21 14:21:00,
2014-09-21 08:31:00,57.6,42.0,30.18,North,0,0.0,0.0,56,0.00,,,0.00,316,WeatherCatV1.24B11,2014-09-21 14:31:00,
2014-09-21 08:41:00,59.1,37.8,30.18,North,0,0.0,1.0,45,0.00,,,0.00,348,WeatherCatV1.24B11,2014-09-21 14:41:00,
2014-09-21 08:51:00,61.2,40.2,30.18,North,0,0.0,1.0,46,0.00,,,0.00,381,WeatherCatV1.24B11,2014-09-21 14:51:00,
2014-09-21 09:01:00,61.0,40.1,30.17,North,0,1.0,1.0,46,0.00,,,0.00,415,WeatherCatV1.24B11,2014-09-21 15:01:00,
2014-09-21 09:11:00,61.0,41.2,30.18,North,0,1.0,2.0,48,0.00,,,0.00,445,WeatherCatV1.24B11,2014-09-21 15:11:00,
2014-09-21 09:21:00,61.8,38.5,30.18,North,0,3.0,3.0,42,0.00,,,0.00,475,WeatherCatV1.24B11,2014-09-21 15:21:00,
2014-09-21 09:31:00,61.9,39.7,30.17,North,0,0.0,1.0,44,0.00,,,0.00,506,WeatherCatV1.24B11,2014-09-21 15:31:00,
2014-09-21 09:41:00,61.7,39.6,30.17,ENE,63,1.0,2.0,44,0.00,,,0.00,534,WeatherCatV1.24B11,2014-09-21 15:41:00,
2014-09-21 09:51:00,62.0,39.8,30.17,ENE,60,2.0,3.0,44,0.00,,,0.00,561,WeatherCatV1.24B11,2014-09-21 15:51:00,
2014-09-21 10:01:00,62.5,40.9,30.17,North,0,3.0,4.0,45,0.00,,,0.00,587,WeatherCatV1.24B11,2014-09-21 16:01:00,
2014-09-21 10:11:00,60.8,42.0,30.17,North,0,4.0,5.0,50,0.00,,,0.00,610,WeatherCatV1.24B11,2014-09-21 16:11:00,
2014-09-21 10:21:00,61.0,42.7,30.17,North,0,2.0,3.0,51,0.00,,,0.00,633,WeatherCatV1.24B11,2014-09-21 16:21:00,
2014-09-21 10:31:00,62.9,44.0,30.17,North,0,2.0,3.0,50,0.00,,,0.00,657,WeatherCatV1.24B11,2014-09-21 16:31:00,
2014-09-21 10:41:00,64.4,44.8,30.17,North,0,4.0,9.0,49,0.00,,,0.00,677,WeatherCatV1.24B11,2014-09-21 16:41:00,
2014-09-21 10:51:00,64.5,43.8,30.17,North,0,8.0,10.0,47,0.00,,,0.00,696,WeatherCatV1.24B11,2014-09-21 16:51:00,
2014-09-21 11:01:00,65.3,42.8,30.17,North,0,2.0,4.0,44,0.00,,,0.00,714,WeatherCatV1.24B11,2014-09-21 17:01:00,
2014-09-21 11:11:00,66.1,41.7,30.16,North,0,8.0,12.0,41,0.00,,,0.00,731,WeatherCatV1.24B11,2014-09-21 17:11:00,
2014-09-21 11:21:00,66.1,41.7,30.16,North,0,2.0,7.0,41,0.00,,,0.00,745,WeatherCatV1.24B11,2014-09-21 17:21:00,
2014-09-21 11:31:00,66.8,41.0,30.16,North,0,4.0,10.0,39,0.00,,,0.00,758,WeatherCatV1.24B11,2014-09-21 17:31:00,
2014-09-21 11:41:00,66.7,42.2,30.16,ENE,63,3.0,8.0,41,0.00,,,0.00,772,WeatherCatV1.24B11,2014-09-21 17:41:00,
2014-09-21 11:51:00,67.4,41.6,30.15,North,0,2.0,7.0,39,0.00,,,0.00,784,WeatherCatV1.24B11,2014-09-21 17:51:00,
2014-09-21 12:01:00,67.7,42.5,30.15,North,0,5.0,8.0,40,0.00,,,0.00,791,WeatherCatV1.24B11,2014-09-21 18:01:00,
2014-09-21 12:11:00,67.7,41.8,30.15,North,0,4.0,6.0,39,0.00,,,0.00,796,WeatherCatV1.24B11,2014-09-21 18:11:00,
2014-09-21 12:21:00,68.0,42.1,30.14,North,0,5.0,7.0,39,0.00,,,0.00,802,WeatherCatV1.24B11,2014-09-21 18:21:00,
2014-09-21 12:31:00,68.1,41.5,30.14,North,0,2.0,7.0,38,0.00,,,0.00,805,WeatherCatV1.24B11,2014-09-21 18:31:00,
2014-09-21 12:41:00,68.6,42.0,30.14,North,0,3.0,8.0,38,0.00,,,0.00,807,WeatherCatV1.24B11,2014-09-21 18:41:00,
2014-09-21 12:51:00,69.0,41.6,30.14,North,0,4.0,8.0,37,0.00,,,0.00,807,WeatherCatV1.24B11,2014-09-21 18:51:00,
2014-09-21 13:01:00,69.7,43.0,30.13,North,0,3.0,8.0,38,0.00,,,0.00,805,WeatherCatV1.24B11,2014-09-21 19:01:00,
2014-09-21 13:11:00,69.6,41.5,30.12,North,0,9.0,11.0,36,0.00,,,0.00,802,WeatherCatV1.24B11,2014-09-21 19:11:00,
2014-09-21 13:21:00,70.1,42.6,30.12,NE,40,6.0,7.0,37,0.00,,,0.00,800,WeatherCatV1.24B11,2014-09-21 19:21:00,
2014-09-21 13:31:00,69.7,41.5,30.11,North,0,11.0,11.0,36,0.00,,,0.00,796,WeatherCatV1.24B11,2014-09-21 19:31:00,
2014-09-21 13:41:00,69.4,42.0,30.11,North,0,3.0,9.0,37,0.00,,,0.00,782,WeatherCatV1.24B11,2014-09-21 19:41:00,
2014-09-21 13:51:00,70.3,43.5,30.11,North,0,8.0,10.0,38,0.00,,,0.00,773,WeatherCatV1.24B11,2014-09-21 19:51:00,
2014-09-21 14:01:00,69.7,42.2,30.10,East,79,1.0,7.0,37,0.00,,,0.00,766,WeatherCatV1.24B11,2014-09-21 20:01:00,
2014-09-21 14:11:00,70.4,44.2,30.10,NNE,32,5.0,7.0,39,0.00,,,0.00,752,WeatherCatV1.24B11,2014-09-21 20:11:00,
2014-09-21 14:21:00,70.7,42.4,30.09,North,0,4.0,7.0,36,0.00,,,0.00,742,WeatherCatV1.24B11,2014-09-21 20:21:00,
2014-09-21 14:31:00,71.3,43.0,30.09,North,0,3.0,5.0,36,0.00,,,0.00,555,WeatherCatV1.24B11,2014-09-21 20:31:00,
2014-09-21 14:41:00,71.0,42.7,30.09,North,0,1.0,5.0,36,0.00,,,0.00,705,WeatherCatV1.24B11,2014-09-21 20:41:00,
2014-09-21 14:51:00,71.5,42.4,30.09,North,0,4.0,8.0,35,0.00,,,0.00,596,WeatherCatV1.24B11,2014-09-21 20:51:00,